sat.trackr.live / text

‹ back to catalog

STARLINK-33923

NORAD 63786 · 2025-091M

PAYLOAD ACTIVE UNKNOWN

§ Identity

Operator
Country
US
Launch date
2025-05-02
Launch site
AFETR
Launch vehicle
Mass (kg)
RCS (m²)

Purposes: comms

External: N2YO · Heavens-Above · Gunter

§ Orbital elements

Epoch: 2026-05-24T22:42:32.297760Z

Period
94.27 min
Inclination
43.0022°
Eccentricity
0.0002384
Mean motion
15.27577557 rev/d
Perigee alt
481.4 km
Apogee alt
484.7 km
Semi-major
6,861.2 km
B*
7.0186e-4
RAAN
341.9585°
Arg perigee
246.4875°
Mean anomaly
113.5726°
Rev number
6,051

§ Raw data

STARLINK-339231 63786U 25091M   26144.94620715  .00019101  00000+0  70186-3 0  99942 63786  43.0022 341.9585 0002384 246.4875 113.5726 15.27577557 60519

JSON: /api/v1/satellites/63786 · /tle

For live sub-satellite position, see the globe view (requires WebGL).

§ Visibility from observer

Set your observer location to see the next 7 days of passes ≥ 10°. The values pass through the URL so the page stays shareable.

No JS? Fill the form by hand. The geolocation button needs JavaScript.